FW0209 Weather Reports


time (UTC)temp
C
wind
direction
speed
KPH
gust
KPH
rain 1hr
cm
rain 24hr
cm
rain mn
cm
humidity
%
barometer
mb
20210224230031 7 46 1.6 6.4 0.00 0.00 0.00 54 1034.7
20210224224523 7 46 3.2 14.5 0.00 0.00 0.00 55 1034.7
20210224223047 7 46 1.6 4.8 0.00 0.00 0.00 53 1034.8
20210224221525 7 46 4.8 8.0 0.00 0.00 0.00 53 1034.8
20210224220036 8 46 3.2 4.8 0.00 0.00 0.00 52 1034.8
20210224214531 8 46 3.2 6.4 0.00 0.00 0.00 52 1034.8
20210224213030 8 46 1.6 4.8 0.00 0.00 0.00 53 1034.8
20210224211537 8 46 1.6 4.8 0.00 0.00 0.00 52 1034.8
20210224210023 8 46 1.6 3.2 0.00 0.00 0.00 52 1034.8
20210224204520 8 46 1.6 4.8 0.00 0.00 0.00 51 1034.7
20210224203029 9 46 1.6 4.8 0.00 0.00 0.00 50 1034.7
20210224201519 10 46 0.0 3.2 0.00 0.00 0.00 48 1034.7
20210224200042 10 46 1.6 4.8 0.00 0.00 0.00 47 1034.7
20210224194529 10 46 0.0 4.8 0.00 0.00 0.00 48 1034.5
20210224193030 10 46 0.0 3.2 0.00 0.00 0.00 48 1034.5
20210224191539 10 46 0.0 3.2 0.00 0.00 0.00 47 1034.4
20210224190033 11 46 0.0 3.2 0.00 0.00 0.00 47 1034.5
20210224184525 11 46 0.0 0.0 0.00 0.00 0.00 45 1034.4
20210224183046 12 46 0.0 1.6 0.00 0.00 0.00 45 1034.3
20210224181529 12 46 1.6 1.6 0.00 0.00 0.00 43 1034.2
20210224180042 13 46 0.0 8.0 0.00 0.00 0.00 41 1034.0
20210224174533 13 46 0.0 1.6 0.00 0.00 0.00 38 1033.9
20210224173034 15 38 0.0 3.2 0.00 0.00 0.00 35 1033.8
20210224171536 15 38 0.0 4.8 0.00 0.00 0.00 32 1033.6
20210224170044 16 38 0.0 3.2 0.00 0.00 0.00 32 1033.6
20210224164532 16 38 1.6 8.0 0.00 0.00 0.00 31 1033.5
20210224163029 17 40 1.6 4.8 0.00 0.00 0.00 30 1033.2
20210224161525 17 40 1.6 6.4 0.00 0.00 0.00 29 1033.3
20210224160038 18 42 3.2 11.3 0.00 0.00 0.00 30 1033.0
20210224154530 18 46 1.6 6.4 0.00 0.00 0.00 29 1033.0
20210224153023 19 46 3.2 8.0 0.00 0.00 0.00 29 1033.1
20210224151527 19 46 1.6 8.0 0.00 0.00 0.00 28 1033.1
20210224150025 19 46 1.6 6.4 0.00 0.00 0.00 26 1033.3
20210224144528 19 46 1.6 11.3 0.00 0.00 0.00 27 1033.4
20210224143028 19 46 1.6 6.4 0.00 0.00 0.00 28 1033.4
20210224141538 19 46 1.6 8.0 0.00 0.00 0.00 29 1033.6
20210224140028 19 46 1.6 9.7 0.00 0.00 0.00 28 1033.7
20210224134530 18 40 1.6 6.4 0.00 0.00 0.00 29 1033.8
20210224133104 18 40 3.2 8.0 0.00 0.00 0.00 28 1033.8
20210224131527 18 40 1.6 9.7 0.00 0.00 0.00 31 1034.0
20210224130032 18 40 1.6 9.7 0.00 0.00 0.00 31 1034.2
20210224124544 18 40 1.6 14.5 0.00 0.00 0.00 32 1034.4
20210224123057 17 38 3.2 8.0 0.00 0.00 0.00 33 1034.5
20210224121521 17 38 3.2 14.5 0.00 0.00 0.00 33 1034.7
20210224120027 17 25 4.8 12.9 0.00 0.00 0.00 33 1035.0
20210224114535 17 19 4.8 12.9 0.00 0.00 0.00 33 1035.1
20210224113028 16 288 4.8 11.3 0.00 0.00 0.00 37 1035.4
20210224111525 16 289 1.6 6.4 0.00 0.00 0.00 40 1035.5
20210224110037 15 294 1.6 4.8 0.00 0.00 0.00 43 1035.8
20210224104523 14 295 1.6 6.4 0.00 0.00 0.00 46 1036.0
20210224103027 13 294 0.0 3.2 0.00 0.00 0.00 51 1036.2
20210224101528 12 294 3.2 4.8 0.00 0.00 0.00 50 1036.5
20210224100034 11 293 0.0 4.8 0.00 0.00 0.00 54 1036.5
20210224094518 11 294 1.6 4.8 0.00 0.00 0.00 56 1036.6
20210224093036 11 294 3.2 6.4 0.00 0.00 0.00 55 1036.5
20210224091525 11 291 1.6 4.8 0.00 0.00 0.00 56 1036.7
20210224090037 10 293 0.0 0.0 0.00 0.00 0.00 58 1036.7
20210224084530 9 330 0.0 3.2 0.00 0.00 0.00 59 1036.8
20210224083027 8 333 0.0 3.2 0.00 0.00 0.00 61 1037.0
20210224081539 8 295 0.0 1.6 0.00 0.00 0.00 62 1037.1
20210224080027 7 269 0.0 1.6 0.00 0.00 0.00 63 1037.2
20210224074528 6 270 0.0 3.2 0.00 0.00 0.00 64 1037.2
20210224073029 6 273 0.0 1.6 0.00 0.00 0.00 66 1037.2
20210224071523 5 340 0.0 0.0 0.00 0.00 0.00 67 1037.3
20210224070038 4 340 0.0 0.0 0.00 0.00 0.00 70 1037.3
20210224064523 3 340 0.0 1.6 0.00 0.00 0.00 72 1037.1
20210224063025 2 340 0.0 0.0 0.00 0.00 0.00 73 1036.9
20210224061533 2 340 0.0 0.0 0.00 0.00 0.00 73 1036.9
20210224060025 2 340 0.0 3.2 0.00 0.00 0.00 73 1036.9
20210224054532 2 340 0.0 3.2 0.00 0.00 0.00 73 1036.9
20210224053026 2 340 1.6 1.6 0.00 0.00 0.00 73 1036.8
20210224051526 2 340 0.0 0.0 0.00 0.00 0.00 73 1036.8
20210224050030 2 340 0.0 0.0 0.00 0.00 0.00 72 1036.8
20210224044528 3 340 0.0 0.0 0.00 0.00 0.00 71 1036.8
20210224043022 3 340 0.0 0.0 0.00 0.00 0.00 71 1036.8
20210224041538 3 340 0.0 1.6 0.00 0.00 0.00 70 1036.9
20210224040037 3 340 0.0 0.0 0.00 0.00 0.00 70 1037.0
20210224034531 3 340 0.0 0.0 0.00 0.00 0.00 69 1037.1
20210224033032 3 340 0.0 3.2 0.00 0.00 0.00 69 1036.9
20210224031524 3 340 3.2 4.8 0.00 0.00 0.00 69 1036.9
20210224030029 3 340 1.6 3.2 0.00 0.00 0.00 69 1036.9
20210224024531 3 340 0.0 0.0 0.00 0.00 0.00 69 1036.9
20210224023030 4 340 0.0 0.0 0.00 0.00 0.00 68 1036.8
20210224021531 4 340 0.0 0.0 0.00 0.00 0.00 67 1036.9
20210224020027 5 340 0.0 3.2 0.00 0.00 0.00 66 1037.0
20210224014532 5 340 0.0 0.0 0.00 0.00 0.00 66 1037.2
20210224013044 5 340 0.0 1.6 0.00 0.00 0.00 65 1037.3
20210224011532 5 340 1.6 3.2 0.00 0.00 0.00 65 1037.3
20210224010051 5 340 0.0 4.8 0.00 0.00 0.00 64 1037.4
20210224004530 5 340 1.6 3.2 0.00 0.00 0.00 64 1037.5
20210224003022 6 340 1.6 3.2 0.00 0.00 0.00 64 1037.5
20210224001550 6 340 0.0 4.8 0.00 0.00 0.00 64 1037.5
20210224000034 6 340 1.6 4.8 0.00 0.00 0.00 64 1037.6
20210223234535 6 340 1.6 3.2 0.00 0.00 0.00 63 1037.4
20210223233030 6 340 0.0 0.0 0.00 0.00 0.00 62 1037.5
20210223231529 6 340 0.0 0.0 0.00 0.00 0.00 61 1037.5